Home > Weather > Porsgrunn > Past weeks

Flag for Norway Past Weather in Porsgrunn, Norway — Yesterday and Last 2 Weeks

Now
64 °F

Mild.


Feels Like: 64 °F
Forecast: 56 / 71 °F
Wind: 1 mph from South

Location: Jomfruland Fyr

Current Time: Aug 25, 2016 at 3:23:50 PM

Latest Report: Aug 25, 2016 at 2:00 PM


Visibility: N/A

Pressure: 30.08 "Hg

Humidity: 94%

Dew Point: 63 °F

Location of PorsgrunnLocation

Past Weather in Porsgrunn — Graph

°F

Porsgrunn Temperature Yesterday

Maximum temperature yesterday: 62 °F (at 2:00 PM)
Minimum temperature yesterday: 58 °F (at 2:00 AM)
Average temperature yesterday: 61 °F

High & Low Weather Summary for the Past Weeks

 TemperatureHumidityPressure
High71 °F (Aug 17, 1:00 PM)95% (Aug 21, 6:00 AM)30.26 "Hg (Aug 21, 6:00 AM)
Low48 °F (Aug 11, 6:00 AM)40% (Aug 11, 11:00 AM)29.65 "Hg (Aug 12, 11:00 PM)
Average61 °F77%29.98 "Hg
* Reported Aug 10 2:00 PM — Aug 25 2:00 PM, Porsgrunn, Weather by CustomWeather, © 2016

Note: Actual official high and low records may vary slightly from our data, if they occured in-between our weather recording intervals... More about our weather records

Advertising

Porsgrunn Weather History for the Previous 24 Hours

Scroll right to see more
 ConditionsComfort  
Time TempWeatherWind HumidityBarometerVisibility
2:00 PM
Thu, Aug 25
64 °FMild.1 mph94%30.08 "HgN/A
1:00 PM64 °FMild.2 mph94%30.09 "HgN/A
12:00 PM64 °FMild.1 mph95%30.08 "HgN/A
11:00 AM63 °FMild.2 mph95%30.10 "HgN/A
10:00 AM64 °FMild.1 mph94%30.09 "HgN/A
9:00 AM64 °FMild.1 mph94%30.08 "HgN/A
8:00 AM63 °FMild.1 mph95%30.08 "HgN/A
7:00 AM63 °FMild.No wind94%30.09 "HgN/A
6:00 AM63 °FMild.1 mph94%30.09 "HgN/A
5:00 AM63 °FMild.1 mph94%30.10 "HgN/A
4:00 AM63 °FMild.2 mph94%30.11 "HgN/A
3:00 AM62 °FCool.2 mph94%30.11 "HgN/A
2:00 AM62 °FCool.2 mph93%30.12 "HgN/A
1:00 AM61 °FCool.2 mph94%30.14 "HgN/A
12:00 AM62 °FCool.2 mph92%30.15 "HgN/A
11:00 PM
Wed, Aug 24
62 °FCool.1 mph91%30.16 "HgN/A
10:00 PM62 °FCool.No wind90%30.17 "HgN/A
9:00 PM62 °FCool.1 mph89%30.17 "HgN/A
8:00 PM62 °FCool.1 mph88%30.18 "HgN/A
7:00 PM62 °FCool.2 mph87%30.19 "HgN/A
6:00 PM62 °FMild.5 mph85%30.20 "HgN/A
5:00 PM62 °FCool.6 mph85%30.21 "HgN/A
4:00 PM62 °FCool.7 mph86%30.22 "HgN/A
3:00 PM62 °FMild.5 mph86%30.22 "HgN/A
Weather by CustomWeather, © 2016

See weather overviewHow to use our weather pages